COSMOS 2251 DEB, 37985

Orbit data source: Space-Track

COSMOS 2251 DEB, 37985 is space debris in LEO originally from a launch on Wed, 16 Jun 1993 UTC launched from the Plesetsk Missile And Space Complex (PKMTR). The debris from Iridium 33, an American commercial communications satellite, has been tracked extensively since its accidental collision with the defunct Russian satellite Cosmos 2251 in 2009. This event, occurring at high speed in low Earth orbit (LEO), generated thousands of pieces of space debris, significantly increasing the risk of further collisions. The Iridium 33 debris cloud has impacted space traffic management and orbital debris mitigation strategies, making it a subject of ongoing study in space situational awareness.

Loading next visibility...
Identifier
37985, 1993-036BQL
Orbit
LEO
Country
Flag of CISCIS
Related business
Manufacturer
Unknown
Mission
Spacecraft
Bus & Motor
Unknown
Mass
Unknown
Launch date (UTC)
1993-06-16 (33 years ago)
Launch vehicle
Unknown
Launch site
Plesetsk Missile And Space Complex (PKMTR)
Object type
Payload
Rocket body
Debris
Shape & HBR
Unknown shape, 0.1 m
Radar Cross Section
Small (<0.1 m²)

Expand to show TLE details & history
Last TLE update: 4 days ago

TLE from 4 days ago
0 COSMOS 2251 DEB
1 37985U 93036BQL 25351.99268138  .00000100  00000-0  43734-4 0  9991
2 37985  74.0252 256.0955 0021014  17.3481 342.8385 14.35484605649921
Epoch: 2025-12-17T23:49Z
TLE epoch observation values (Epoch: 2025-12-17T23:49:27.671Z)
Latitude
0.00002°
Longitude
171.87563°
Altitude
761.707 km
Speed
7.481 km/s
True Right ascension
17h 04m 22s
True Declination
0° 00' 00"
Sunlit
Object was in daylight at epoch
Visualization orbit readout
Latitude
Unknown
Longitude
Unknown
Altitude
Unknown
Speed
Unknown
Apparent Right ascension
Unknown
Apparent Declination
Unknown
Sunlit
N/A
Visualization observer readout
Local Sidereal Time
11:14:08
Azimuth
Unknown
Elevation
Unknown
Doppler factor
Unknown
Orbital elements
Apogee altitude
786.105 km
Perigee altitude
756.059 km
Semi-major axis
7,149.219 km
Eccentricity
0.0021
Inclination
74.0252°
RAAN
256.0955°
Arg. of periapsis
17.3481°
True anomaly
342.76727°
Mean anomaly
342.8385°
Eccentric anomaly
342.8029°
Mean motion
3.5905 °/min
Orbital period
100.26 mins
BSTAR
0.000043734
Loading maneuver chart data...
Computing Atmospheric mass density...
Loading historical data...
Loading historical data...
Loading historical data...
Loading historical data...
Loading historical data...
Loading historical data...
Loading historical data...

Documentation

Showing up to 5 results
|